Location: Dillon
(41.1766°N, 107.0923°W)
Time: 11:39:12
(UTC+00:00)

AO-92 - Pass Details

Date: 08 July 2022
Orbit: 469 x 481 km, 97.4° (Epoch: 10 August)

Event Time Altitude Azimuth Distance (km) Brightness Sun altitude
Exits shadow 05:35:44 45° 261° (W) 665 ? -22.4°
Maximum altitude 05:35:44 45° 261° (W) 665 ? -22.4°
Drops below altitude 10° 05:39:12 10° 335° (NNW) 1,668 ? -22.7°
Sets 05:41:20 0° 342° (NNW) 2,555 ? -22.9°
